(329318) = 2000 SA313

Discovered at Socorro on 2000-09-27 by LINEAR.

Orbit

Orbit type: Main Belt

Note: WebGL enabled browser required.

epoch2024-03-31.0
epoch JD2460400.5
perihelion date2021-09-14.17949
perihelion JD2459471.67949
argument of perihelion (°)89.01160
ascending node (°)253.44354
inclination (°)11.19676
eccentricity0.2813452
perihelion distance (AU)1.8809696
Tisserand w.r.t. Jupiter3.3
ΔV w.r.t. Earth (km/sec)9.3
semimajor axis (AU)2.6173479
mean anomaly (°)216.19392
mean daily motion (°/day)0.23276180
aphelion distance (AU)3.354
period (years)4.23
P-vector [x]0.93523923
P-vector [y]-0.34883001
P-vector [z]0.06037552
Q-vector [x]0.30113764
Q-vector [y]0.87355539
Q-vector [z]0.38238346
absolute magnitude15.86
phase slope0.15
uncertainty0
referenceMPEC 2024-F28
observations used969
oppositions14
arc length (days)8623
first opposition used2000
last opposition used2024
residual rms (arc-secs)0.61
perturbers coarse indicatorM-v
perturbers precise indicator003Ek
first observation date used2000-08-08.0
last observation date used2024-03-18.0
computer nameMPCLINUX
JD of orbit computation2456760.694600
perihelion JD uncertainty (days)4.8232E-05
argument of perihelion uncertainty (°)2.3420E-05
ascending node uncertainty (°)2.0930E-05
inclination uncertainty (°)3.9259E-06
eccentricity uncertainty 3.5381E-08
perihelion distance uncertainty (AU)9.4926E-08
Minimum Orbit Intersection Distances (in AU)
for orbit epoch: 2460400.5, reference: E2024-G51
Mercury1.51319
Venus1.191
Earth0.91314
Mars0.61327
Jupiter2.22692
Saturn6.03802
Uranus15.1747
Neptune27.1329

Observations

985 total observations over interval: 2000 08 08.40999 – 2024 03 18.434919
These data are available for download (format description).

Date (UT) J2000 RA J2000 Dec Magn Location Ref
2000 08 08.40999 01 08 29.70 +24 51 24.4 19.2   704 – Lincoln Laboratory ETS, New Mexico MPS 21415
2000 08 08.42411 01 08 30.40 +24 51 31.3 19.0   704 – Lincoln Laboratory ETS, New Mexico MPS 21415
2000 08 08.43824 01 08 30.97 +24 51 38.8 18.9   704 – Lincoln Laboratory ETS, New Mexico MPS 21415
2000 09 08.30893 01 20 09.21 +28 16 22.1 18.0 R 699 – Lowell Observatory-LONEOS MPS 21415
2000 09 08.33311 01 20 08.94 +28 16 25.7   699 – Lowell Observatory-LONEOS MPS 21415
2000 09 08.35732 01 20 08.62 +28 16 28.4   699 – Lowell Observatory-LONEOS MPS 21415
2000 09 08.38143 01 20 08.40 +28 16 31.4   699 – Lowell Observatory-LONEOS MPS 21415
2000 09 27.25977 01 12 12.88 +27 45 32.1 18.4   704 – Lincoln Laboratory ETS, New Mexico MPS 20269
2000 09 27.27433 01 12 12.31 +27 45 27.6 18.3   704 – Lincoln Laboratory ETS, New Mexico MPS 20269
2000 09 27.29043 01 12 11.60 +27 45 22.2 18.5   704 – Lincoln Laboratory ETS, New Mexico MPS 20269
2000 09 27.30499 01 12 10.98 +27 45 17.9 18.4   704 – Lincoln Laboratory ETS, New Mexico MPS 20269
2000 09 27.32061 01 12 10.32 +27 45 12.4 18.3   704 – Lincoln Laboratory ETS, New Mexico MPS 20269
2000 10 04.34069 01 07 14.88 +26 57 28.3 18.5   704 – Lincoln Laboratory ETS, New Mexico MPS 20269
2000 10 04.35615 01 07 14.11 +26 57 20.7 18.3   704 – Lincoln Laboratory ETS, New Mexico MPS 20269
2000 10 04.37115 01 07 13.40 +26 57 13.0 18.4   704 – Lincoln Laboratory ETS, New Mexico MPS 20269
2000 10 04.38639 01 07 12.71 +26 57 05.1 18.5   704 – Lincoln Laboratory ETS, New Mexico MPS 20269
2000 10 04.40147 01 07 11.94 +26 56 58.1 18.4   704 – Lincoln Laboratory ETS, New Mexico MPS 20269
2000 10 25.23602 00 52 54.19 +23 08 55.1 17.6   704 – Lincoln Laboratory ETS, New Mexico MPS 21415
2000 10 25.25007 00 52 53.66 +23 08 44.1 18.0   704 – Lincoln Laboratory ETS, New Mexico MPS 21415
2000 10 25.26396 00 52 53.14 +23 08 33.8 17.9   704 – Lincoln Laboratory ETS, New Mexico MPS 21415
2000 10 25.27775 00 52 52.72 +23 08 22.8 17.7   704 – Lincoln Laboratory ETS, New Mexico MPS 21415
2000 10 25.29210 00 52 52.25 +23 08 12.3 18.4   704 – Lincoln Laboratory ETS, New Mexico MPS 21415
2000 10 26.07784 00 52 28.10 +22 58 09.1 17.6 R 699 – Lowell Observatory-LONEOS MPS 25204
2000 10 26.10626 00 52 27.16 +22 57 47.7   699 – Lowell Observatory-LONEOS MPS 25204
2000 10 26.12029 00 52 26.68 +22 57 37.0   699 – Lowell Observatory-LONEOS MPS 25204
2000 10 26.13437 00 52 26.22 +22 57 26.1   699 – Lowell Observatory-LONEOS MPS 25204
2000 11 01.22248 00 49 47.30 +21 39 25.1 18.3   704 – Lincoln Laboratory ETS, New Mexico MPS 21415
2000 11 01.23637 00 49 47.00 +21 39 14.4 18.9   704 – Lincoln Laboratory ETS, New Mexico MPS 21415
2000 11 01.25056 00 49 46.66 +21 39 03.7 18.5   704 – Lincoln Laboratory ETS, New Mexico MPS 21415
2000 11 01.26563 00 49 46.24 +21 38 51.6 18.6   704 – Lincoln Laboratory ETS, New Mexico MPS 21415
2000 11 01.28018 00 49 45.87 +21 38 41.0 18.2   704 – Lincoln Laboratory ETS, New Mexico MPS 21415
2000 11 19.23454 00 48 26.90 +18 10 14.7 18.7   704 – Lincoln Laboratory ETS, New Mexico MPS 22573
2000 11 19.25011 00 48 27.06 +18 10 04.1 19.2   704 – Lincoln Laboratory ETS, New Mexico MPS 22573
2000 11 19.26570 00 48 27.21 +18 09 55.1 19.0   704 – Lincoln Laboratory ETS, New Mexico MPS 22573
2000 11 19.28132 00 48 27.35 +18 09 46.2 19.0   704 – Lincoln Laboratory ETS, New Mexico MPS 22573
2000 11 19.29699 00 48 27.58 +18 09 37.4 19.0   704 – Lincoln Laboratory ETS, New Mexico MPS 22573
2000 11 27.17611 00 51 01.52 +16 58 34.3 19.5   704 – Lincoln Laboratory ETS, New Mexico MPS 22573
2000 11 27.19056 00 51 01.82 +16 58 29.4 19.2   704 – Lincoln Laboratory ETS, New Mexico MPS 22573
2000 11 27.20500 00 51 02.23 +16 58 21.3 18.7   704 – Lincoln Laboratory ETS, New Mexico MPS 22573
2000 12 04.15204 00 54 46.48 +16 08 37.7 19.3   704 – Lincoln Laboratory ETS, New Mexico MPS 22573
2000 12 04.16691 00 54 47.03 +16 08 33.1 18.5   704 – Lincoln Laboratory ETS, New Mexico MPS 22573
2000 12 04.18195 00 54 47.64 +16 08 27.3 19.0   704 – Lincoln Laboratory ETS, New Mexico MPS 22573
2000 12 04.19672 00 54 48.10 +16 08 22.1 19.1   704 – Lincoln Laboratory ETS, New Mexico MPS 22573
2000 12 20.14663 01 07 51.67 +14 59 17.8 19.3   704 – Lincoln Laboratory ETS, New Mexico MPS 23846
2000 12 20.16179 01 07 52.49 +14 59 15.8 19.4   704 – Lincoln Laboratory ETS, New Mexico MPS 23846
2000 12 20.19212 01 07 54.33 +14 59 12.4 19.6   704 – Lincoln Laboratory ETS, New Mexico MPS 23846
2002 02 13.245910 08 37 31.885 +04 00 43.44 20.54 V 645 – Apache Point-Sloan Digital Sky Survey MPS 110086
2002 02 13.249382 08 37 31.702 +04 00 44.22 21.48   645 – Apache Point-Sloan Digital Sky Survey MPS 110086
2004 06 01.39034 21 10 19.02 -06 05 40.8 18.4 R 703 – Catalina Sky Survey MPS 108980
2004 06 01.39660 21 10 19.27 -06 05 35.5 18.6 R 703 – Catalina Sky Survey MPS 108980
2004 06 01.40289 21 10 19.56 -06 05 32.7 18.4 R 703 – Catalina Sky Survey MPS 108980
2004 06 01.40919 21 10 19.83 -06 05 25.7 18.7 R 703 – Catalina Sky Survey MPS 108980
2004 06 10.35431 21 16 12.35 -04 09 17.4 18.7 R 699 – Lowell Observatory-LONEOS MPS 108980
2004 06 10.36672 21 16 12.72 -04 09 05.7   699 – Lowell Observatory-LONEOS MPS 108980
2004 06 10.37806 21 16 13.15 -04 08 58.8   699 – Lowell Observatory-LONEOS MPS 108980
2004 06 10.38939 21 16 13.35 -04 08 50.4   699 – Lowell Observatory-LONEOS MPS 108980
2004 06 12.37071 21 17 14.94 -03 43 13.9 18.6   704 – Lincoln Laboratory ETS, New Mexico MPS 108980
2004 06 12.38078 21 17 15.14 -03 43 05.9 19.2   704 – Lincoln Laboratory ETS, New Mexico MPS 108980
2004 06 12.39084 21 17 15.44 -03 42 58.0 19.5   704 – Lincoln Laboratory ETS, New Mexico MPS 108980
2004 06 12.40092 21 17 15.68 -03 42 50.0 19.4   704 – Lincoln Laboratory ETS, New Mexico MPS 108980
2004 06 13.12782 21 17 36.58 -03 33 28.6 18.8 V 941 – Observatorio Pla D'Arguines MPS 108980
2004 06 13.12896 21 17 36.61 -03 33 27.5 19.1 V 941 – Observatorio Pla D'Arguines MPS 108980
2004 06 13.13055 21 17 36.65 -03 33 26.1 19.2 V 941 – Observatorio Pla D'Arguines MPS 108980
2004 06 13.13313 21 17 36.70 -03 33 24.0 18.9 V 941 – Observatorio Pla D'Arguines MPS 108980
2004 06 14.35418 21 18 10.20 -03 17 41.7 18.9 R 699 – Lowell Observatory-LONEOS MPS 108980
2004 06 14.36551 21 18 10.46 -03 17 32.5   699 – Lowell Observatory-LONEOS MPS 108980
2004 06 14.37679 21 18 10.78 -03 17 22.9   699 – Lowell Observatory-LONEOS MPS 108980
2004 06 14.38812 21 18 11.07 -03 17 14.9   699 – Lowell Observatory-LONEOS MPS 108980
2004 06 25.38161 21 21 15.36 -00 59 31.1 17.8 R 703 – Catalina Sky Survey MPS 109558
2004 06 25.39094 21 21 15.36 -00 59 23.9 18.0 R 703 – Catalina Sky Survey MPS 109558
2004 06 25.40032 21 21 15.41 -00 59 16.6 18.0 R 703 – Catalina Sky Survey MPS 109558
2004 06 25.40970 21 21 15.45 -00 59 09.8 18.2 R 703 – Catalina Sky Survey MPS 109558
2004 08 04.27130 21 04 08.12 +04 41 11.3 17.5   644 – Palomar Mountain/NEAT MPS 110808
2004 08 04.29924 21 04 06.68 +04 41 17.2 18.1   644 – Palomar Mountain/NEAT MPS 110808
2004 08 04.33799 21 04 04.64 +04 41 23.9 17.3   644 – Palomar Mountain/NEAT MPS 110808
2004 08 20.17530 20 51 27.16 +04 54 26.3 17.3   704 – Lincoln Laboratory ETS, New Mexico MPS 111794
2004 08 20.20539 20 51 25.78 +04 54 23.3 18.6   704 – Lincoln Laboratory ETS, New Mexico MPS 111794
2004 08 20.21153 20 51 25.53 +04 54 22.7 17.9   704 – Lincoln Laboratory ETS, New Mexico MPS 111794
2004 08 20.21541 20 51 25.31 +04 54 22.4 18.5   704 – Lincoln Laboratory ETS, New Mexico MPS 111794
2004 08 20.22161 20 51 25.06 +04 54 21.7 18.5   704 – Lincoln Laboratory ETS, New Mexico MPS 111794
2004 08 20.23150 20 51 24.60 +04 54 21.1 18.7   704 – Lincoln Laboratory ETS, New Mexico MPS 111794
2004 08 20.24127 20 51 24.14 +04 54 20.1 18.4   704 – Lincoln Laboratory ETS, New Mexico MPS 111794
2004 08 20.25127 20 51 23.70 +04 54 19.7 17.8   704 – Lincoln Laboratory ETS, New Mexico MPS 111794
2004 09 11.17454 20 42 14.24 +03 33 18.7 18.2   704 – Lincoln Laboratory ETS, New Mexico MPS 112647
2004 09 11.18573 20 42 14.16 +03 33 15.6 19.0   704 – Lincoln Laboratory ETS, New Mexico MPS 112647
2004 09 11.19684 20 42 14.13 +03 33 11.7 19.7   704 – Lincoln Laboratory ETS, New Mexico MPS 112647
